Location: Emblem
(62.4273°N, 6.4710°E)
Time: 11:47:45
(UTC+01:00)

Vanguard 1 Rocket - All Passes

Search period start: 28 January 2023 00:00
Search period end: 07 February 2023 00:00
Orbit: 650 x 4225 km, 34.3° (Epoch: 27 January)

Date Brightness Start Highest point End Pass type
(mag) Time Alt. Az. Time Alt. Az. Time Alt. Az.
28 Jan - 13:59:44 10° S 14:10:45 21° SSE 14:25:18 10° ESE daylight
28 Jan - 16:21:02 10° SW 16:35:53 29° S 16:54:57 10° SE daylight
28 Jan - 18:46:26 10° WSW 19:02:05 25° SSW 19:19:45 10° SSE visible
28 Jan - 21:19:21 10° WSW 21:27:00 12° SW 21:34:45 10° SSW visible
29 Jan - 12:52:04 10° SSE 12:59:37 15° SE 13:08:59 10° ESE daylight
29 Jan - 15:10:38 10° SSW 15:23:38 26° SSE 15:41:12 10° ESE daylight
29 Jan - 17:34:16 10° WSW 17:49:34 27° SSW 18:08:15 10° SE visible
29 Jan - 20:02:32 10° WSW 20:15:16 18° SW 20:28:50 10° S visible
30 Jan - 14:01:06 10° SSW 14:11:53 22° SSE 14:26:34 10° ESE daylight
30 Jan - 16:22:58 10° SW 16:37:05 28° S 16:55:37 10° SE daylight
30 Jan - 18:48:49 10° WSW 19:03:06 22° SSW 19:19:29 10° SSE visible
31 Jan - 12:52:51 10° S 13:00:42 16° SE 13:10:50 10° ESE daylight
31 Jan - 15:12:27 10° SW 15:24:53 26° SSE 15:42:03 10° SE daylight
31 Jan - 17:36:29 10° WSW 17:50:43 25° SSW 18:08:23 10° SSE visible
31 Jan - 20:06:11 10° WSW 20:16:05 14° SW 20:26:44 10° SSW visible
01 Feb - 14:02:43 10° SSW 14:13:08 22° SSE 14:27:39 10° ESE daylight
01 Feb - 16:25:06 10° SW 16:38:20 26° S 16:56:01 10° SE daylight
01 Feb - 18:51:36 10° WSW 19:04:07 19° SSW 19:18:36 10° S visible
02 Feb - 12:54:05 10° S 13:01:56 17° SE 13:12:21 10° ESE daylight
02 Feb - 15:14:28 10° SW 15:26:13 25° S 15:42:41 10° SE daylight
02 Feb - 17:38:57 10° WSW 17:51:54 22° SSW 18:08:07 10° SSE visible
02 Feb - 20:12:06 10° WSW 20:16:57 11° SW 20:22:00 10° SW visible
03 Feb - 11:48:24 10° SE 11:51:16 11° SE 11:54:26 10° ESE daylight
03 Feb - 14:04:35 10° SSW 14:14:30 22° SSE 14:28:33 10° ESE daylight
03 Feb - 16:27:24 10° SW 16:39:41 24° S 16:56:09 10° SSE daylight
03 Feb - 18:55:00 10° WSW 19:05:11 16° SW 19:16:52 10° S visible
04 Feb - 12:55:39 10° S 13:03:17 18° SSE 13:13:38 10° ESE daylight
04 Feb - 15:16:40 10° SW 15:27:39 24° S 15:43:07 10° SE daylight
04 Feb - 17:41:46 10° WSW 17:53:08 19° SSW 18:07:19 10° S visible
05 Feb - 11:48:46 10° SSE 11:52:35 12° SE 11:57:02 10° ESE daylight
05 Feb - 14:06:39 10° SSW 14:15:59 22° SSE 14:29:17 10° SE daylight
05 Feb - 16:29:58 10° SW 16:41:05 21° SSW 16:55:55 10° SSE daylight
05 Feb - 18:59:49 10° WSW 19:06:16 12° SW 19:13:24 10° SSW visible
06 Feb - 12:57:29 10° SSW 13:04:46 18° SSE 13:14:44 10° ESE daylight
06 Feb - 15:19:04 10° SW 15:29:09 22° S 15:43:18 10° SE daylight
06 Feb - 17:45:07 10° WSW 17:54:27 16° SSW 18:05:46 10° S visible
